一网星座-0380星 (ONEWEB-0380 )

导读 | 星芒AI

ONEWEB-0380 是 OneWeb 卫星星座计划中的一颗低轨通信卫星,旨在为全球提供高速互联网服务。该卫星由阿丽亚娜集团制造,采用 OneWeb 标准卫星平台,具备高容量通信能力。它于2022年发射,运行在约1200公里高度的近极地轨道,与其他卫星共同构建覆盖全球的宽带网络,特别服务于偏远和网络基础设施薄弱的地区。ONEWEB-0380 有助于提升全球数字连接,推动教育、医疗和经济发展。

基本信息
目录编号:
49306
目录名称:
ONEWEB-0380
国际标识:
2021-090AD
轨道中心:
EARTH
卫星名称:
一网星座-0380星
卫星全名:
一网星座-0380星 (ONEWEB-0380 )
卫星状态:
在轨 (已飞行1477 天)
发射日期:
2021-10-14 UTC
国别 :
英国 (GB)
星等 :
--
轨道信息
数据来源 国际轨道数据 AOE轨道数据
星历时间 2025-10-30T04:29:21+0800
8小时前
查看轨道信息
2025-10-27T04:00:00+0800
3天前
查看轨道信息
半长轴 7563.938km 7563.91km
偏心率 0.0001782 0.000213
轨道倾角 87.924° 87.922°
近地点辐角 90.391° 81.154°
升交点赤经 350.803° 351.404°
平近点角 269.742° 337.333°
近地点 1184.455km 1184.163km
远地点 1187.151km 1187.387km
周期 109.114分钟 109.114分钟
每日圈数 13.197171 13.197245
详细信息
平衡模式:
三轴稳定
覆盖范围:
全球
运营商:
一网卫星公司
运营商所在国:
英国
制造商(研发单位):
一网卫星公司
制造商所在国:
英国
使用方式:
暂无
卫星简介
OneWeb卫星网络由648颗重约125公斤的微型卫星组成,运行在1200公里的轨道上。 每颗卫星都能够提供至少每秒8千兆位的吞吐量,以使用其高吞吐量的Ku频段有效载荷为家庭和移动平台提供互联网接入。该卫星仍在工作。
2D轨道图
3D轨道图
轨道高度分析图
轨道倾角分析图
轨道综合分析图
查看轨道综合分析图